Location: Eastview
(35.0756°N, 88.5453°W)
Time: 16:36:33
(UTC+00:00)

COSMOS 2455 - Pass Details

Date: 22 November 2019
Orbit: 902 x 908 km, 67.1° (Epoch: 14 December)

Event Time Altitude Azimuth Distance (km) Brightness Sun altitude
Rises 23:21:25 0° 175° (S) 3,513 6.1 -7.8°
Reaches altitude 10° 23:24:14 10° 164° (SSE) 2,577 5.3 -8.3°
Maximum altitude 23:29:14 28° 107° (ESE) 1,625 3.8 -9.3°
Enters shadow 23:34:09 10° 50° (NE) 2,565 4.6 -10.2°
